Station SPXA2 - Ship Island, AK Image indicating link to RSS feed of recent meteorological observations for station SPXA2


Conditions at SPXA2 as of
(3:02 am AKDT)
1102 GMT on 09/01/2026:
     

Click on the graph icon in the table below to see a time series plot of the last five days of that observation.

5-day plot - Wind Direction Wind Direction (WDIR):ESE ( 120 deg true )
5-day plot - Wind Speed Wind Speed (WSPD): 9.9 kts
5-day plot - Wind Gust Wind Gust (GST): 17.1 kts
5-day plot - Atmospheric Pressure Atmospheric Pressure (PRES):29.51 in
5-day plot - Air Temperature Air Temperature (ATMP): 55.8 °F
5-day plot - Dew Point Dew Point (DEWP): 52.5 °F
5-day plot -  Wind Speed, Wind Gust and Atmospheric Pressure Combined plot of Wind Speed, Gust, and Air Pressure
Previous observations
TIME
(AKDT)
5-day plot - Wind Direction
WDIR
 
5-day plot - Wind Speed
WSPD
kts
5-day plot - Wind Gust
GST
kts
5-day plot - Wave Height
WVHT
ft
5-day plot - Dominant Wave Period
DPD
sec
5-day plot - Average Wave Period
APD
sec
5-day plot - Mean Wave Direction
MWD
 
5-day plot - Atmospheric Pressure
PRES
in
5-day plot - Pressure Tendency
PTDY
in
5-day plot - Air Temperature
ATMP
°F
5-day plot - Water Temperature
WTMP
°F
5-day plot - Dew Point
DEWP
°F
5-day plot - Salinity
SAL
psu
5-day plot - Visibility
VIS
nmi
5-day plot - Tide (above MLLW)
TIDE
ft
2026-09-01 02:52 amESE 14.0 21.0----29.51- 55.4- 53.1---
2026-09-01 02:42 amESE 14.0 20.0----29.51- 55.6- 53.6---
2026-09-01 02:32 amESE 13.0 20.0----29.52- 55.9- 53.4---
2026-09-01 02:22 amESE 12.0 20.0----29.52- 55.9- 53.1---
2026-09-01 02:12 amESE 12.0 20.0----29.52- 56.1- 52.9---
2026-09-01 02:02 am SE 13.0 20.0----29.53- 56.1- 52.9---
2026-09-01 01:52 amESE 13.0 22.0----29.53- 56.3- 52.7---
2026-09-01 01:42 amESE 14.0 21.0----29.53- 55.9- 52.7---
2026-09-01 01:32 amESE 14.0 22.9----29.53- 55.9- 53.1---
2026-09-01 01:22 amESE 15.0 22.9----29.54- 55.6- 53.2---
2026-09-01 01:12 amESE 14.0 22.0----29.54- 55.6- 54.0---
2026-09-01 01:02 amESE 15.9 25.1----29.54- 55.4- 53.8---
2026-09-01 12:52 amESE 15.9 22.9----29.54- 55.4- 54.0---
2026-09-01 12:42 amESE 15.0 22.0----29.55- 55.0- 54.0---
2026-09-01 12:31 amESE 17.1 26.0----29.56- 55.0- 54.0---
2026-09-01 12:22 amESE 15.0 22.0----29.56- 55.0- 54.1---
2026-09-01 12:12 amESE 15.0 26.0----29.56- 55.2- 54.1---
2026-09-01 12:02 amESE 17.1 26.0----29.56- 55.0- 54.0---
2026-08-31 11:52 pmESE 15.0 24.1----29.57- 55.2- 54.3---
2026-08-31 11:42 pmESE 15.0 22.9----29.57- 55.2- 54.3---
2026-08-31 11:32 pmESE 14.0 22.9----29.57- 55.0- 54.0---
2026-08-31 11:22 pmESE 14.0 21.0----29.58- 55.0- 53.6---
2026-08-31 11:12 pmESE 15.0 25.1----29.57- 55.2- 53.6---
2026-08-31 11:02 pmESE 15.0 22.9----29.58- 55.0- 53.6---
2026-08-31 10:52 pmESE 15.0 25.1----29.58- 55.0- 53.6---
2026-08-31 10:42 pmESE 14.0 22.9----29.58- 55.0- 54.0---
2026-08-31 10:32 pmESE 14.0 26.0------------
2026-08-31 10:22 pmESE 15.0 24.1----29.59- 54.9- 53.8---
2026-08-31 10:12 pmESE 15.0 22.0----29.59- 54.9- 53.8---
2026-08-31 10:02 pmESE 14.0 21.0----29.59- 54.7- 53.8---
2026-08-31 09:52 pmESE 14.0 25.1----29.59- 54.7- 53.8---
2026-08-31 09:42 pmESE 15.9 24.1----29.59- 55.0- 54.0---
2026-08-31 09:32 pmESE 15.0 22.9----29.60- 55.0- 54.0---
2026-08-31 09:22 pmESE 14.0 22.0----29.60- 54.9- 53.8---
2026-08-31 09:12 pmESE 15.0 22.0----29.61- 54.5- 53.6---
2026-08-31 09:02 pmESE 15.0 22.9----29.61- 54.5- 54.0---
2026-08-31 08:52 pmESE 15.9 22.9----29.62- 54.9- 54.3---
2026-08-31 08:42 pmESE 15.9 25.1----29.62- 55.2- 54.7---
2026-08-31 08:32 pmESE 15.0 22.0----29.62- 55.4- 54.9---
2026-08-31 08:22 pmESE 13.0 22.9----29.62- 55.6- 55.0---
2026-08-31 08:12 pmESE 12.0 21.0----29.62- 55.8- 54.9---
2026-08-31 08:02 pmESE 13.0 22.0----29.62- 55.8- 54.9---
2026-08-31 07:52 pmESE 13.0 21.0----29.62- 55.8- 54.9---
2026-08-31 07:42 pmESE 12.0 20.0----29.62- 55.9- 55.4---
2026-08-31 07:32 pmESE 14.0 21.0----29.63- 56.1- 55.6---
2026-08-31 07:22 pmESE 13.0 22.0----29.63- 56.1- 55.2---
2026-08-31 07:12 pmESE 13.0 20.0----29.63- 56.1- 55.6---
2026-08-31 07:02 pmESE 15.0 22.9----29.63- 56.1- 55.8---
2026-08-31 06:52 pmESE 15.0 22.0----29.64- 56.3- 55.9---
2026-08-31 06:42 pmESE 14.0 20.0----29.64- 56.3- 55.8---
2026-08-31 06:32 pmESE 15.0 22.0----29.64- 56.7- 55.6---
2026-08-31 06:22 pmESE 14.0 22.9----29.64- 56.8- 55.4---
2026-08-31 06:12 pmESE 13.0 22.0----29.64- 56.8- 55.4---
2026-08-31 06:02 pmESE 12.0 21.0----29.64- 57.0- 55.6---
2026-08-31 05:52 pmESE 13.0 21.0----29.65- 57.2- 55.4---
2026-08-31 05:42 pmESE 13.0 21.0----29.65- 57.6- 55.2---
2026-08-31 05:32 pmESE 13.0 20.0----29.65- 57.7- 55.4---
2026-08-31 05:21 pmESE 12.0 20.0----29.65- 58.1- 54.9---
2026-08-31 05:12 pmESE 9.9 15.9----29.65- 57.9- 55.2---
2026-08-31 05:02 pmESE 9.9 18.1----29.66- 57.9- 55.0---
2026-08-31 04:52 pmESE 9.9 17.1----29.66- 57.7- 55.4---
2026-08-31 04:42 pmESE 9.9 17.1----29.67- 57.6- 55.6---
2026-08-31 04:32 pmESE 12.0 15.9----29.67- 57.4- 55.6---
2026-08-31 04:22 pm SE 13.0 17.1----29.67- 57.4- 55.9---
2026-08-31 04:12 pm SE 13.0 17.1----29.68- 57.4- 55.6---
2026-08-31 04:02 pmESE 13.0 18.1----29.68- 57.4- 55.6---
2026-08-31 03:52 pm-------29.68- 57.4- 55.6---
2026-08-31 03:12 pmESE 14.0 21.0----29.68- 57.2- 55.8---
2026-08-31 03:02 pmESE 13.0 21.0----29.68- 57.6- 55.8---
2026-08-31 02:52 pmESE 15.0 22.9----29.68- 57.6- 55.6---
2026-08-31 02:42 pmESE 15.0 22.0----29.68- 57.9- 55.6---
2026-08-31 02:32 pmESE 14.0 22.0----29.68- 58.1- 55.4---
2026-08-31 02:22 pm SE 17.1 22.9----29.68- 57.9- 55.6---
2026-08-31 02:12 pmESE 15.0 22.9----29.68- 58.1- 55.4---
2026-08-31 02:02 pmESE 14.0 20.0----29.68- 58.3- 55.6---
2026-08-31 01:52 pmESE 14.0 19.0----29.69- 57.7- 55.9---
2026-08-31 01:42 pm SE 15.0 20.0----29.69- 57.6- 55.8---
2026-08-31 01:32 pm SE 15.9 20.0----29.70- 57.2- 55.8---
2026-08-31 01:22 pm SE 17.1 25.1----29.70- 57.0- 55.9---
2026-08-31 01:12 pm SE 17.1 20.0----29.70- 57.0- 55.9---
2026-08-31 01:02 pm SE 17.1 19.0----29.70- 57.0- 55.6---
2026-08-31 12:52 pm SE 15.0 18.1----29.70- 57.0- 55.2---
2026-08-31 12:42 pm SE 17.1 19.0----29.70- 56.7- 55.2---
2026-08-31 12:32 pm SE 17.1 20.0----29.70- 56.7- 55.2---
2026-08-31 12:22 pm SE 15.0 17.1----29.70- 56.5- 55.4---
2026-08-31 12:12 pm SE 14.0 15.9----29.70- 56.5- 55.4---
2026-08-31 12:02 pm SE 14.0 15.9----29.71- 56.3- 55.4---
2026-08-31 11:52 am SE 12.0 14.0----29.71- 56.5- 55.6---
2026-08-31 11:42 am SE 12.0 15.0----29.71- 56.5- 55.6---
2026-08-31 11:32 am SE 12.0 15.0----29.71- 56.3- 55.4---
2026-08-31 11:22 am SE 14.0 17.1----29.72- 56.3- 55.2---
2026-08-31 11:12 am SE 12.0 15.0----29.72- 56.5- 55.4---
2026-08-31 11:02 am SE 12.0 15.0----29.71- 56.3- 55.4---
2026-08-31 10:52 am SE 11.1 14.0----29.71- 56.3- 55.4---
2026-08-31 10:42 am SE 12.0 14.0----29.72- 56.1- 55.2---
2026-08-31 10:32 am SE 11.1 14.0----29.71- 55.9- 55.0---
2026-08-31 10:22 am-------29.72- 56.1- 55.2---
2026-08-31 10:12 am SE 9.9 12.0----29.72- 55.9- 55.0---
2026-08-31 10:02 am SE 9.9 12.0----29.72- 55.8- 55.2---
2026-08-31 09:52 am-------29.72- 55.9- 55.4---
2026-08-31 09:42 am SE 9.9 12.0----29.72- 55.9- 55.4---
2026-08-31 09:32 am SE 9.9 12.0----29.72- 55.9- 55.4---
2026-08-31 09:22 am SE 8.9 12.0----29.72- 55.9- 55.4---
2026-08-31 09:12 am SE 8.9 11.1----29.72- 55.9- 55.4---
2026-08-31 09:02 am SE 8.0 11.1----29.72- 56.1- 55.2---
2026-08-31 08:52 am SE 8.0 9.9----29.72- 55.9- 55.0---
2026-08-31 08:42 am SE 7.0 9.9----29.72- 55.9- 55.0---
2026-08-31 08:32 am SE 6.0 8.0----29.72- 55.8- 54.9---
2026-08-31 08:22 am SE 6.0 7.0----29.73- 55.8- 54.9---
2026-08-31 08:12 am SE 7.0 8.0----29.73- 55.8- 54.9---
2026-08-31 08:02 am SE 6.0 8.0----29.73- 55.9- 55.0---
2026-08-31 07:52 am SE 5.1 7.0----29.73- 55.9- 54.9---
2026-08-31 07:42 am SE 5.1 7.0----29.72- 55.8- 54.7---
2026-08-31 07:32 amESE 4.1 6.0----29.73- 55.6- 54.5---
2026-08-31 07:22 amESE 1.9 5.1----29.73- 55.6- 54.7---
2026-08-31 07:12 am- 0.0 1.9----29.73- 55.4- 54.5---
2026-08-31 07:02 amESE 1.9 4.1----29.74- 55.6- 54.7---
2026-08-31 06:52 am S 1.9 2.9----29.74- 55.4- 54.5---
2026-08-31 06:42 am S 1.9 2.9----29.74- 55.2- 54.7---
2026-08-31 06:32 amSSE 1.0 2.9----29.74- 55.0- 54.5---
2026-08-31 06:22 am NE 1.0 1.9----29.75- 55.2- 54.7---
2026-08-31 06:12 am- 0.0 1.9----29.75- 55.2- 54.7---
2026-08-31 06:02 am- 0.0 1.9----29.75- 55.4- 54.9---
2026-08-31 05:52 am- 0.0 1.0----29.75- 55.4- 54.5---
2026-08-31 05:42 am- 0.0 1.0----29.75- 55.4- 54.5---
2026-08-31 05:32 am- 0.0 1.0----29.75- 55.2- 54.3---
2026-08-31 05:22 am- 0.0 1.0----29.75- 55.2- 54.3---
2026-08-31 05:12 am- 0.0 1.0----29.75- 55.0- 54.1---
2026-08-31 05:02 amESE 1.0 4.1----29.76- 55.0- 54.5---
2026-08-31 04:52 am SE 4.1 5.1----29.76- 55.0- 54.5---
2026-08-31 04:42 am SE 4.1 5.1----29.76- 54.9- 54.3---
2026-08-31 04:32 am SE 1.9 4.1----29.77- 54.9- 54.3---
2026-08-31 04:22 am- 0.0 1.0----29.77- 54.5- 53.6---
2026-08-31 04:12 am- 0.0 1.0----29.77- 54.3- 53.8---
2026-08-31 04:02 am- 0.0 1.0----29.77- 54.3- 53.8---
2026-08-31 03:52 am- 0.0 1.9----29.77- 54.0- 53.4---
2026-08-31 03:42 am- 0.0 1.9----29.77- 54.1- 53.6---
2026-08-31 03:32 am- 0.0 1.9----29.77- 54.1- 53.6---
2026-08-31 03:22 am- 0.0 1.0----29.78- 54.5- 54.0---
2026-08-31 03:12 am NE 1.0 1.9----29.78- 54.5- 54.0---
2026-08-31 03:02 am- 0.0 1.9----29.78- 55.2- 54.7---
2026-08-31 02:52 am- 0.0 1.0----29.78- 55.0- 54.1---